Location: Warszawa
(52.2463°N, 21.0173°E)
Time: 16:32:56
(UTC+02:00)

ISS - Visible Passes

Search period start: 25 May 2018 00:00
Search period end: 04 June 2018 00:00
Orbit: 402 x 407 km, 51.6° (Epoch: 25 May)

Date Brightness Start Highest point End Pass type
(mag) Time Alt. Az. Time Alt. Az. Time Alt. Az.
25 May -3.9 00:31:21 10° W 00:34:36 63° SSW 00:35:43 36° SE visible
25 May -1.4 02:08:08 10° W 02:08:18 11° W 02:08:18 11° W visible
25 May -3.9 22:02:44 10° WSW 22:05:59 69° SSE 22:09:15 10° E visible
25 May -4.0 23:39:09 10° W 23:42:26 75° S 23:44:38 19° ESE visible
26 May -2.2 01:15:44 10° W 01:17:14 21° WSW 01:17:14 21° WSW visible
26 May -3.9 22:46:57 10° W 22:50:14 82° S 22:53:30 10° E visible
27 May -3.5 00:23:26 10° W 00:26:25 43° SSW 00:26:25 43° SSW visible
27 May -3.9 21:54:43 10° W 21:58:01 81° S 22:01:17 10° E visible
27 May -3.8 23:31:11 10° W 23:34:25 58° SSW 23:35:41 32° SE visible
28 May -1.3 01:08:06 10° W 01:08:19 11° W 01:08:19 11° W visible
28 May -3.9 22:38:57 10° W 22:42:13 72° S 22:45:01 13° ESE visible
29 May -2.4 00:15:35 10° W 00:17:39 24° SW 00:17:39 24° SW visible
29 May -3.9 21:46:43 10° W 21:50:00 80° S 21:53:16 10° E visible
29 May -3.3 23:23:13 10° W 23:26:18 38° SSW 23:27:01 33° S visible
30 May -3.6 22:30:55 10° W 22:34:08 53° SSW 22:36:24 17° SE visible
31 May -1.6 00:08:00 10° WSW 00:09:02 14° WSW 00:09:02 14° WSW visible
31 May -3.8 21:38:38 10° W 21:41:55 67° SSW 21:45:09 10° ESE visible
31 May -2.5 23:15:20 10° W 23:18:02 24° SSW 23:18:27 23° SSW visible
01 Jun -3.0 22:22:54 10° W 22:25:55 34° SSW 22:27:54 17° SSE visible
02 Jun -1.7 23:07:51 10° WSW 23:09:37 14° SW 23:09:58 14° SSW visible
03 Jun -2.1 22:15:01 10° W 22:17:33 21° SSW 22:19:28 13° S visible
